Showing default

PRAETORIAN SDA_602, 65565

Orbit data source: Space-Track

PRAETORIAN SDA_602, 65565 is a payload satellite owned by SDA (US) in LEO that was launched on Wed, 10 Sep 2025 UTC via an FALCON 9 launch vehicle from the Air Force Western Test Range (AFWTR). Payload-class satellites include a variety of spacecraft equipped with specific instruments for various scientific and technological missions. These include communications satellites like Starlink; space stations such as the ISS; scientific satellites like the Hubble; Earth observation satellites from companies like Planet Labs, Umbra, and HawkEye 360; GPS; miniature CubeSats for education and research; and military/defense satellites.

Loading next visibility...
Identifier
65565, 2025-203A
Orbit
LEO
Country
Flag of USUS
Related business
Manufacturer
York Space Sys
Mission
Operational Defense Communications
Bus & Motor
S-CLASS, Unknown motor
Mass
~300 kg wet, ~300 kg dry
Launch date (UTC)
2025-09-10 (9 months ago)
Launch vehicle
FALCON 9
Launch site
Air Force Western Test Range (AFWTR)
Object type
Payload
Rocket body
Debris
Shape & HBR
Box + 4 Pan, 14.5 m
Radar Cross Section
1.244 m², Large (>1 m²)

Expand to show TLE details & history
Last TLE update: 15 hours ago

TLE from 15 hours ago
0 PRAETORIAN SDA_602
1 65565U 25203A   26171.27657532  .00000062  00000-0  45004-4 0  9998
2 65565  81.3029   7.9069 0005957 177.1718 182.9474 13.84277876 39124
Epoch: 2026-06-20T06:38Z
TLE epoch observation values (Epoch: 2026-06-20T06:38:16.107Z)
Latitude
0.00002°
Longitude
-0.15373°
Altitude
955.978 km
Speed
7.372 km/s
True Right ascension
00h 31m 37s
True Declination
0° 00' 00"
Sunlit
Object was in daylight at epoch
Visualization orbit readout
Latitude
Unknown
Longitude
Unknown
Altitude
Unknown
Speed
Unknown
Apparent Right ascension
Unknown
Apparent Declination
Unknown
Sunlit
N/A
Visualization observer readout
Local Sidereal Time
08:32:55
Azimuth
Unknown
Elevation
Unknown
Doppler factor
Unknown
Orbital elements
Apogee altitude
950.322 km
Perigee altitude
941.596 km
Semi-major axis
7,324.096 km
Eccentricity
0.0006
Inclination
81.3029°
RAAN
7.9069°
Arg. of periapsis
177.1718°
True anomaly
182.94389°
Mean anomaly
182.9474°
Eccentric anomaly
182.94565°
Mean motion
3.46268 °/min
Orbital period
103.97 mins
BSTAR
0.000045004
Loading maneuver chart data...
Computing Atmospheric mass density...
Loading historical data...
Loading historical data...
Loading historical data...
Loading historical data...
Loading historical data...
Loading historical data...
Loading historical data...

Documentation

Showing up to 5 results
|